Regional Weather Roundup
Issued by NWS

Home | Current Version | Previous Version | Graphics & Text | Print | Product List | Glossary On
Versions: 1 2 3 4 5 6 7 8 9 10 11 12 13 14 15 16 17 18 19 20 21 22 23 24 25 26 27 28 29 30 31 32 33 34 35 36 37 38 39 40 41 42 43 44 45 46 47 48 49 50
000
ASUS45 KSLC 291110
RWRUT

UTAH REGIONAL WEATHER ROUNDUP
NATIONAL WEATHER SERVICE SALT LAKE CITY UT
500 AM MDT FRI MAY 29 2015

UTZ001>011-023>025-291200-

NORTHERN UTAH

CITY           SKY/WX    TMP DP  RH WIND       PRES   REMARKS
BRIGHAM CITY   CLEAR     49  46  87 CALM      30.17S
HILL AFB       NOT AVBL
LOGAN          CLEAR     42  40  92 CALM      30.20R
OGDEN          CLEAR     49  43  80 S6        30.16S
PROVO AIRPORT  CLEAR     45  37  76 SE3       30.19R
SALT LAKE CITY CLEAR     52  44  74 S7        30.15S
VERNAL         CLOUDY    47  39  74 W5        30.21S
WENDOVER       CLEAR     54  46  76 CALM      30.15S
HEBER CITY     CLEAR     37  36  93 CALM      30.23S
WEST JORDAN    CLEAR     48  43  81 CALM      30.18S

$$

UTZ012>022-026-027-291200-

SOUTHERN/CENTRAL UTAH

CITY           SKY/WX    TMP DP  RH WIND       PRES   REMARKS
BLANDING       CLEAR     49  38  67 N10       30.23R
BRYCE CANYON   PTCLDY    40  36  86 NW7       30.30R
CEDAR CITY     MOCLDY    53  46  77 SE3       30.15F
DELTA          CLEAR     50  43  77 NE6       30.16S
HANKSVILLE     CLEAR     52  41  66 CALM      30.16R
MILFORD        PTCLDY    47  45  93 CALM      30.16R
MOAB/CYNLANDS  CLEAR     50  40  68 W5        30.13R
PRICE          CLEAR     46  34  62 E3        30.20R
ST GEORGE      SUNNY     70  39  32 E3        30.02R

$$

REGIONAL REPORTS     COLORADO/ARIZONA

CITY           SKY/WX    TMP DP  RH WIND       PRES   REMARKS
CRAIG, CO      CLOUDY    40  38  93 SW7       30.24S
GRAND JUNCTION CLEAR     43  43 100 CALM      30.17S
RIFLE          CLEAR     42  38  85 CALM      30.23S
MONTROSE       CLEAR     43  39  86 SE7       30.22R
CORTEZ         CLEAR     40  37  89 E6        30.17R
PAGE, AZ       MOCLDY    67  42  40 CALM      30.07F
GRAND CANYON   PTCLDY    43  37  79 CALM      30.21R
KINGMAN        PTCLDY    62  22  21 SE8       30.00S
FLAGSTAFF      CLOUDY    42  29  59 CALM      30.24R

$$

REGIONAL REPORTS    NEVADA/IDAHO/WYOMING

CITY           SKY/WX    TMP DP  RH WIND       PRES   REMARKS
LAS VEGAS, NV  PTCLDY    76  34  21 SW3       29.86R
ELY            MOCLDY    42  40  92 S5        30.22R
ELKO           CLEAR     49  42  77 S3        30.16R
POCATELLO, ID  CLEAR     44  44 100 NE7       30.20F
BURLEY         CLEAR     52  47  83 NE9       30.16S
EVANSTON, WY   CLEAR     38  34  85 SE7       30.27R WCI  33
ROCK SPRINGS   CLOUDY    42  36  79 CALM      30.27R
KEMMERER       CLEAR     36  34  93 NW7       30.28S WCI  30

$$



USA.gov is the U.S. government's official web portal to all federal, state and local government web resources and services.